STARLINK-35514

Last updated on Fri Dec 19 2025 00:02:05 GMT+0000 (Coordinated Universal Time)

1 66535U 25265V 25352.66667824 .00026645 00000+0 64335-3 0 9993 2 66535 43.0002 19.4536 0001908 275.4980 186.6791 15.40678195 5949
UTC large
Height (km)
Speed (km/s)
/
Latitude / Longitude
Inclination (degrees)
Orbital Period (minutes)
Azimuth
Elevation
Range (km)
Doppler Factor

Next 0 passes for location: London (51.5072 / 0.1276)

Sorry there are no passes over London.